[[{"header":{"parameterUnit":"m.s-1","parameterCategory":1,"la1":30.2992,"la2":30.254,"lo1":-89.0895,"lo2":-89.0443,"dy":0.0025,"dx":0.0025,"nx":19,"ny":19,"refTime":"2026-04-05T21:00:00:Z","depth":0,"parameterNumber":2,"parameterNumberName":"U-component_of_WINDS"},"data":[0,0,0,-4.7934,-4.7935,-4.7974,-4.7974,-4.806,-4.8061,0,0,0,0,0,0,0,0,0,0,0,-4.7941,-4.7943,-4.7934,-4.7935,-4.7974,-4.7974,-4.806,-4.8061,0,0,0,0,0,0,0,0,0,0,0,-4.7941,-4.7942,-4.7944,-4.7936,-4.7974,-4.7974,-4.8059,-4.8018,0,0,0,0,0,0,0,0,0,0,-4.7974,-4.7999,-4.7942,-4.7944,-4.7936,-4.7974,-4.7974,-4.8015,-4.802,-4.8057,0,-4.8092,0,-4.8078,-4.8069,-4.8069,0,0,0,-4.7921,-4.7995,-4.7988,-4.7944,-4.7936,-4.7974,-4.7953,-4.8018,-4.8024,-4.8064,-4.8093,-4.8095,-4.8079,-4.8069,-4.807,-4.8322,-4.8324,0,0,-4.7919,-4.7959,-4.7984,-4.7993,-4.7986,-4.7952,-4.7954,-4.8021,-4.8056,-4.8093,-4.8096,-4.8081,-4.807,-4.8071,-4.832,-4.8323,0,0,0,-4.7922,-4.7958,-4.7949,-4.799,-4.7994,-4.7953,-4.7956,-4.8053,-4.8046,-4.8097,-4.8082,-4.8071,-4.8072,-4.8318,-4.8321,-4.8452,0,0,0,-4.792,-4.796,-4.7949,-4.7974,-4.7994,-4.8024,-4.7987,-4.8042,-4.8048,-4.8081,-4.8071,-4.8073,-4.8316,-4.832,-4.8444,-4.8508,0,0,0,-4.7932,-4.7961,-4.7973,-4.7976,-4.7994,-4.8021,-4.8018,-4.8042,-4.804,-4.8069,-4.8074,-4.8315,-4.8319,-4.8437,-4.8496,-4.8589,0,0,0,-4.7957,-4.8087,-4.7976,-4.8116,-4.7994,-4.8101,-4.8017,-4.8095,-4.8136,-4.8072,-4.8316,-4.8321,-4.8434,-4.8489,-4.8582,-4.8677,-4.8719,0,0,-4.8144,-4.8111,-4.819,-4.8092,-4.8229,-4.8092,-4.8249,-4.8248,-4.8215,-4.8289,-4.8295,-4.8447,-4.8495,-4.8588,-4.8936,-4.897,0,0,0,-4.8263,-4.8322,-4.8349,-4.839,-4.8392,-4.8401,-4.8372,-4.8373,-4.8434,-4.826,-4.8502,-4.853,-4.8582,-4.8626,-4.8655,-4.87,-4.8342,-4.8341,-4.8341,-4.8587,-4.8537,-4.8666,-4.8623,-4.8663,-4.8633,-4.8663,-4.8659,-4.8595,-4.8654,-4.8677,-4.8894,-4.8947,-4.8968,-4.9015,-4.872,-4.872,-4.8721,-4.8721,-4.8859,-4.8935,-4.885,-4.8945,-4.8893,-4.8973,-4.895,-4.8904,-4.8973,-4.8872,-4.8916,-4.8814,-4.9007,-4.9046,-4.873,-4.8729,-4.8727,-4.8727,-4.8726,-4.9069,-4.9097,-4.9094,-4.915,-4.9199,-4.9149,-4.9221,-4.9169,-4.9122,-4.9165,-4.9186,-4.9184,-4.9179,-4.9178,-4.9179,-4.918,-4.918,-4.9181,-4.9181,-4.9288,-4.9281,-4.9347,-4.9362,-4.9383,-4.9405,-4.9377,-4.9397,-4.9407,-4.9365,-4.9365,-4.93,-4.9033,-4.897,-4.9193,-4.9191,-4.9189,-4.9188,-4.9187,-4.9589,-4.9513,-4.9615,-4.9636,-4.9652,-4.9707,-4.964,-4.9686,-4.9695,-4.9733,-4.9658,-4.9468,-4.9431,-4.9408,-4.9356,-4.9665,-4.9665,-4.9665,-4.9665,-4.9769,-4.9745,-4.9839,-4.9877,-4.9908,-4.9859,-4.998,-4.9961,-4.993,-4.9934,-4.9881,-4.9805,-4.9783,-4.976,-4.9729,-4.968,-5.0065,-5.0065,-5.0065,-4.9954,-4.993,-5.0042,-5.0009,-5.0018,-5.0029,-5.0141,-5.0192,-5.014,-5.0081,-4.9937,-4.992,-4.9797,-4.9759,-4.97,-4.9653,-4.956,0,0]},{"header":{"parameterUnit":"m.s-1","parameterCategory":1,"la1":30.2992,"la2":30.254,"lo1":-89.0895,"lo2":-89.0443,"dy":0.0025,"dx":0.0025,"nx":19,"ny":19,"refTime":"2026-04-05T21:00:00:Z","depth":0,"parameterNumber":3,"parameterNumberName":"V-component_of_WINDS"},"data":[0,0,0,-1.3102,-1.3103,-1.3165,-1.3165,-1.3247,-1.3247,0,0,0,0,0,0,0,0,0,0,0,-1.3085,-1.3085,-1.3102,-1.3103,-1.3165,-1.3165,-1.3246,-1.3247,0,0,0,0,0,0,0,0,0,0,0,-1.3085,-1.3085,-1.3086,-1.3103,-1.3165,-1.3165,-1.3246,-1.3199,0,0,0,0,0,0,0,0,0,0,-1.3139,-1.3124,-1.3085,-1.3086,-1.3104,-1.3165,-1.3165,-1.3197,-1.3202,-1.322,0,-1.3236,0,-1.3243,-1.3253,-1.3253,0,0,0,-1.3102,-1.312,-1.3135,-1.3086,-1.3104,-1.3165,-1.3137,-1.3199,-1.3205,-1.3227,-1.3237,-1.324,-1.3244,-1.3253,-1.3254,-1.3359,-1.3359,0,0,-1.3099,-1.3097,-1.3131,-1.3139,-1.3129,-1.3135,-1.3139,-1.3203,-1.3214,-1.3237,-1.3242,-1.3245,-1.3254,-1.3255,-1.3358,-1.3359,0,0,0,-1.309,-1.3095,-1.3108,-1.3136,-1.3147,-1.3137,-1.3141,-1.3211,-1.3216,-1.3242,-1.3246,-1.3254,-1.3255,-1.3358,-1.3359,-1.3384,0,0,0,-1.3088,-1.3089,-1.3107,-1.3106,-1.3145,-1.318,-1.3148,-1.3211,-1.3219,-1.3246,-1.3254,-1.3256,-1.3357,-1.3358,-1.3382,-1.3397,0,0,0,-1.308,-1.3088,-1.3097,-1.3106,-1.3132,-1.3179,-1.3187,-1.3213,-1.3221,-1.3253,-1.3256,-1.3357,-1.3358,-1.338,-1.3394,-1.3425,0,0,0,-1.3072,-1.3119,-1.3098,-1.3151,-1.3132,-1.3193,-1.3186,-1.3232,-1.3263,-1.3255,-1.3357,-1.3358,-1.338,-1.3392,-1.3423,-1.3453,-1.3464,0,0,-1.313,-1.3126,-1.3157,-1.314,-1.3205,-1.3184,-1.3252,-1.3282,-1.3287,-1.3335,-1.3337,-1.3383,-1.3394,-1.3425,-1.3525,-1.3534,0,0,0,-1.3175,-1.3198,-1.3216,-1.3244,-1.3267,-1.3289,-1.3309,-1.3319,-1.336,-1.3311,-1.3401,-1.3408,-1.3426,-1.3441,-1.3448,-1.3465,-1.3364,-1.3364,-1.3364,-1.3256,-1.3259,-1.3312,-1.3322,-1.335,-1.3369,-1.3392,-1.341,-1.3405,-1.3426,-1.3442,-1.3502,-1.3518,-1.3524,-1.3541,-1.3455,-1.3455,-1.3455,-1.3455,-1.3343,-1.3377,-1.3368,-1.3417,-1.342,-1.346,-1.348,-1.3475,-1.3514,-1.3491,-1.3507,-1.3483,-1.3534,-1.3549,-1.3457,-1.3457,-1.3457,-1.3457,-1.3456,-1.3398,-1.3415,-1.3427,-1.3468,-1.35,-1.3508,-1.3546,-1.3547,-1.3548,-1.3563,-1.3581,-1.358,-1.3582,-1.3571,-1.3571,-1.3571,-1.3571,-1.3572,-1.3572,-1.3453,-1.3465,-1.3497,-1.3524,-1.3543,-1.3567,-1.3585,-1.3604,-1.3624,-1.3622,-1.3622,-1.3616,-1.3537,-1.3519,-1.3575,-1.3575,-1.3574,-1.3574,-1.3574,-1.3544,-1.3523,-1.3573,-1.3591,-1.3624,-1.3656,-1.3655,-1.3692,-1.3707,-1.3725,-1.3715,-1.3655,-1.3652,-1.3646,-1.3631,-1.3713,-1.3713,-1.3713,-1.3713,-1.3593,-1.359,-1.3641,-1.367,-1.3699,-1.3703,-1.3759,-1.3773,-1.3785,-1.3794,-1.3782,-1.3761,-1.3754,-1.3755,-1.3746,-1.3732,-1.3838,-1.3838,-1.3839,-1.3651,-1.3651,-1.3699,-1.3709,-1.3734,-1.3756,-1.3809,-1.3844,-1.3852,-1.3844,-1.3802,-1.3797,-1.3763,-1.3752,-1.3746,-1.3733,-1.3707,0,0]}]]